NOAA 16 DEB, 41366

Orbit data source: Space-Track

NOAA 16 DEB, 41366 is space debris in SSO originally from a launch on Thu, 21 Sep 2000 UTC launched from the Air Force Western Test Range (AFWTR). Debris objects in space refer to the collection of defunct objects orbiting the Earth. Examples of debris include non-operational satellites, rocket bodies, and fragments generated from explosions, collisions, or faulty payload assembly.

Loading next visibility...
Identifier
41366, 2000-055JK
Orbit
SSO
Country
Flag of USUS
Related business
Manufacturer
Unknown
Mission
Spacecraft
Bus & Motor
Unknown
Mass
Unknown
Launch date (UTC)
2000-09-21 (25 years ago)
Launch vehicle
Unknown
Launch site
Air Force Western Test Range (AFWTR)
Object type
Payload
Rocket body
Debris
Shape & HBR
Unknown
Radar Cross Section
Small (<0.1 m²)

Expand to show TLE details & history
Last TLE update: 21 hours ago

TLE from 21 hours ago
0 NOAA 16 DEB
1 41366U 00055JK  25260.06310663  .00009171  00000-0  33005-2 0  9991
2 41366  98.9385   1.9039 0026066 324.4524  35.4922 14.33768510494640
Epoch: 2025-09-17T01:30Z
TLE epoch observation values (Epoch: 2025-09-17T01:30:52.412Z)
Latitude
-0.00005°
Longitude
-17.05891°
Altitude
766.911 km
Speed
7.479 km/s
True Right ascension
00h 07m 36s
True Declination
0° 00' 00"
Sunlit
Object was in full shadow at epoch
Visualization orbit readout
Latitude
Unknown
Longitude
Unknown
Altitude
Unknown
Speed
Unknown
Apparent Right ascension
Unknown
Apparent Declination
Unknown
Sunlit
N/A
Visualization observer readout
Local Sidereal Time
14:50:48
Azimuth
Unknown
Elevation
Unknown
Doppler factor
Unknown
Orbital elements
Apogee altitude
794.962 km
Perigee altitude
757.664 km
Semi-major axis
7,154.45 km
Eccentricity
0.00261
Inclination
98.9385°
RAAN
1.9039°
Arg. of periapsis
324.4524°
True anomaly
35.66608°
Mean anomaly
35.4922°
Eccentric anomaly
35.57909°
Mean motion
3.58657 °/min
Orbital period
100.37 mins
BSTAR
0.0033005
Loading maneuver chart data...
Computing Atmospheric mass density...
Loading historical data...
Loading historical data...
Loading historical data...
Loading historical data...
Loading historical data...
Loading historical data...
Loading historical data...

Documentation

Showing up to 5 results
|